Chezy-en-Orxois, France

2:40 PM CEST on September 24, 2018 (GMT +0200)
Chezy-en-Orxois

Weather History for 07157 - June, 2004

Change the Weather History Date:

Monday, June 7, 2004

  Actual Average Record
Temperature  
Mean Temperature 68 °F -  
Max Temperature 80 °F 72 °F - ()
Min Temperature 57 °F 54 °F - ()
Cooling Degree Days 4    
Growing Degree Days 18 (Base 50)    
Moisture  
Dew Point 54 °F    
Average Humidity 57    
Maximum Humidity 82    
Minimum Humidity 37    
Precipitation  
Precipitation 0.00 in - - ()
Sea Level Pressure  
Sea Level Pressure 30.10 in    
Wind  
Wind Speed 5 mph ()    
Max Wind Speed 13 mph    
Max Gust Speed 21 mph    
T = Trace of Precipitation, MM = Missing Value Source: Averaged Metar Reports

Daily Weather History Graph

Daily Weather History Graph

Search for Another Location

Airport or City:

Astronomy

Jun. 07, 2004 Rise Set
Actual Time 5:46 AM CEST 9:51 PM CEST
Civil Twilight 5:04 AM CEST 10:33 PM CEST
Nautical Twilight 4:05 AM CEST 11:32 PM CEST
Astronomical Twilight 2:13 AM CEST 1:29 AM CEST
Moon 1:38 AM CEST (6/7) 10:14 AM CEST (6/7)
Length of Visible Light 17h 28m
Length of Day
16h 04m
Waning Gibbous, 76% of the Moon is Illuminated
Jun 7
Waning Gibbous
Jun 9
Last Quarter
Jun 17
New
Jun 25
First Quarter
Jul 2
Full

Hourly Weather History & Observations

Time (CEST) Temp. Heat Index Dew Point Humidity Pressure Visibility Wind Dir Wind Speed Gust Speed Precip Events Conditions
12:00 AM 64.4 °F - 53.6 °F 68% 30.09 in - East 4.6 mph - N/A   Clear
12:30 AM 64.4 °F - 53.6 °F 68% 30.09 in - East 3.5 mph - N/A   Clear
1:00 AM 64.4 °F - 53.6 °F 68% 30.09 in - East 4.6 mph - N/A   Clear
1:30 AM 62.6 °F - 53.6 °F 72% 30.09 in - ESE 5.8 mph - N/A   Clear
2:00 AM 62.6 °F - 53.6 °F 72% 30.09 in - ESE 5.8 mph - N/A   Clear
2:30 AM 62.6 °F - 53.6 °F 72% 30.09 in - ESE 6.9 mph - N/A   Clear
3:00 AM 60.8 °F - 53.6 °F 77% 30.09 in - ESE 4.6 mph - N/A   Clear
3:30 AM 60.8 °F - 53.6 °F 77% 30.09 in - East 4.6 mph - N/A   Clear
4:00 AM 59.0 °F - 53.6 °F 82% 30.09 in - ESE 5.8 mph - N/A   Clear
4:30 AM 59.0 °F - 51.8 °F 77% 30.09 in - East 4.6 mph - N/A   Clear
5:00 AM 59.0 °F - 51.8 °F 77% 30.09 in - East 5.8 mph - N/A   Clear
5:30 AM 57.2 °F - 51.8 °F 82% 30.09 in - East 4.6 mph - N/A   Clear
6:00 AM 57.2 °F - 51.8 °F 82% 30.09 in - East 3.5 mph - N/A   Clear
6:30 AM 59.0 °F - 51.8 °F 77% 30.09 in - East 3.5 mph - N/A   Clear
7:00 AM 60.8 °F - 51.8 °F 72% 30.09 in - ENE 4.6 mph - N/A   Clear
7:30 AM 60.8 °F - 51.8 °F 72% 30.12 in - NNE 1.2 mph - N/A   Clear
8:00 AM 62.6 °F - 51.8 °F 68% 30.12 in - NNE 2.3 mph - N/A   Clear
8:30 AM 64.4 °F - 51.8 °F 64% 30.12 in - ENE 3.5 mph - N/A   Clear
9:00 AM 66.2 °F - 51.8 °F 60% 30.12 in - SE 4.6 mph - N/A   Clear
9:30 AM 68.0 °F - 53.6 °F 60% 30.12 in - SSE 3.5 mph - N/A   Clear
10:00 AM 68.0 °F - 51.8 °F 56% 30.12 in - Variable 2.3 mph - N/A   Clear
10:30 AM 71.6 °F - 53.6 °F 53% 30.12 in - South 3.5 mph - N/A   Clear
11:00 AM 71.6 °F - 53.6 °F 53% 30.12 in - SE 4.6 mph - N/A   Clear
11:30 AM 73.4 °F - 51.8 °F 47% 30.12 in - SSE 6.9 mph - N/A   Clear
12:00 PM 73.4 °F - 51.8 °F 47% 30.12 in - South 6.9 mph - N/A   Clear
12:30 PM 75.2 °F - 53.6 °F 47% 30.12 in - South 5.8 mph - N/A   Clear
1:00 PM 77.0 °F - 53.6 °F 44% 30.12 in - Variable 4.6 mph - N/A   Clear
1:30 PM 77.0 °F - 51.8 °F 41% 30.12 in - SE 6.9 mph - N/A   Clear
2:00 PM 78.8 °F - 53.6 °F 42% 30.09 in - SE 9.2 mph - N/A   Clear
2:30 PM 78.8 °F - 55.4 °F 44% 30.09 in - Variable 5.8 mph - N/A   Clear
3:00 PM 78.8 °F - 53.6 °F 42% 30.09 in - ESE 6.9 mph - N/A   Clear
3:30 PM 80.6 °F 80.3 °F 53.6 °F 39% 30.09 in - SSE 8.1 mph - N/A   Clear
4:00 PM 80.6 °F 80.3 °F 53.6 °F 39% 30.09 in - ESE 6.9 mph 20.7 mph N/A   Clear
4:30 PM 80.6 °F - 51.8 °F 37% 30.09 in - ESE 9.2 mph - N/A   Clear
5:00 PM 80.6 °F - 51.8 °F 37% 30.09 in - SE 8.1 mph - N/A   Clear
5:30 PM 80.6 °F 80.3 °F 53.6 °F 39% 30.09 in - ESE 6.9 mph - N/A   Clear
6:00 PM 80.6 °F 80.3 °F 53.6 °F 39% 30.09 in - SE 6.9 mph - N/A   Clear
6:30 PM 80.6 °F 80.3 °F 53.6 °F 39% 30.09 in - ESE 8.1 mph - N/A   Clear
7:00 PM 80.6 °F 80.3 °F 53.6 °F 39% 30.09 in - ESE 9.2 mph - N/A   Clear
7:30 PM 80.6 °F - 51.8 °F 37% 30.09 in - ESE 9.2 mph - N/A   Clear
8:00 PM 78.8 °F - 55.4 °F 44% 30.09 in - SE 10.4 mph - N/A   Clear
8:30 PM 78.8 °F - 55.4 °F 44% 30.09 in - SE 11.5 mph - N/A   Clear
9:00 PM 77.0 °F - 57.2 °F 50% 30.09 in - ESE 12.7 mph - N/A   Clear
9:30 PM 77.0 °F - 57.2 °F 50% 30.06 in - ESE 9.2 mph - N/A   Clear
10:00 PM 75.2 °F - 59.0 °F 57% 30.09 in - ESE 8.1 mph - N/A   Clear
10:30 PM 75.2 °F - 59.0 °F 57% 30.09 in - SE 9.2 mph - N/A   Clear
11:00 PM 73.4 °F - 59.0 °F 61% 30.09 in - SE 8.1 mph - N/A   Clear
11:30 PM 73.4 °F - 59.0 °F 61% 30.09 in - SSE 8.1 mph - N/A   Clear